• Join FlightAware (Why Join?)
  • Login
  • US Flag GB Flag 
09:36 EDT


 

Airport Tracker/Info


-or-


 

Live Flight TrackerFlight Track Log ✈ SWA1004 ✈ 12-Apr-2013 ✈ KBWI - KMDW

Flight Track Log - Related Links

Times and Time Zones

All times are in EDT time to prevent confusion due to time zone crossing. See the SWA1004 flight status page for this flight to view local times or setup timezone preferences in your user account.

Time Position Orientation Groundspeed Altitude Reporting Facility
EDT Latitude Longitude Course Direction KTS MPH feet Rate Location/Type
09:55 39.1333 -76.6833 195° South 209 241 3,200  Level Potomac TRACON
09:56 39.1833 -76.7333 322° Northwest 245 282 5,400 2,460 Climbing Potomac TRACON
09:57 39.2000 -76.8167 284° West 240 276 8,200 2,880 Climbing Potomac TRACON
09:58 39.2167 -76.9000 284° West 263 303 11,200 3,000 Climbing Potomac TRACON
09:59 39.2167 -77.0000 270° West 271 312 14,200 2,940 Climbing Potomac TRACON
10:00 39.2167 -77.1000 270° West 301 346 17,100 2,880 Climbing Potomac TRACON
10:01 39.1667 -77.1833 232° Southwest 304 350 20,000 2,220 Climbing Potomac TRACON
10:03 39.0878 -77.3700 241° Southwest 321 369 23,700 1,800 Climbing Washington Center
10:04 39.0692 -77.4953 259° West 340 391 25,300 1,620 Climbing Washington Center
10:05 39.0503 -77.6389 260° West 392 451 27,000 1,440 Climbing Washington Center
10:06 39.0292 -77.7775 259° West 406 467 28,200 1,800 Climbing Washington Center
10:07 39.0078 -77.9156 259° West 406 467 30,600 2,100 Climbing Washington Center
10:08 38.9839 -78.0644 258° West 406 467 32,500 1,740 Climbing Washington Center
10:09 38.9647 -78.1892 259° West 406 467 34,100 1,560 Climbing Washington Center
10:10 38.9633 -78.3442 269° West 396 456 35,700 1,440 Climbing Washington Center
10:11 38.9683 -78.4858 273° West 402 463 37,000 1,140 Climbing Washington Center
10:12 38.9753 -78.6275 274° West 407 468 38,000 480 Climbing Washington Center
10:13 38.9800 -78.7667 273° West 397 457 38,000  Level Washington Center
10:14 38.9847 -78.8978 273° West 392 451 38,000  Level Washington Center
10:15 39.0042 -79.0267 281° West 377 434 38,000  Level Washington Center
10:17 39.0753 -79.2250 295° West 376 433 38,000  Level Cleveland Center
10:18 39.1247 -79.3525 297° West 388 447 38,000  Level Cleveland Center
10:19 39.1697 -79.4800 295° West 393 452 38,000  Level Cleveland Center
10:20 39.2147 -79.6081 294° West 393 452 38,000  Level Cleveland Center
10:21 39.2594 -79.7358 294° West 393 452 38,000  Level Cleveland Center
10:22 39.3019 -79.8642 293° West 398 458 38,000  Level Cleveland Center
10:23 39.3486 -79.9953 295° West 398 458 38,000  Level Cleveland Center
10:24 39.3931 -80.1236 294° West 398 458 38,000  Level Cleveland Center
10:25 39.4372 -80.2497 294° West 398 458 38,000  Level Cleveland Center
10:26 39.4811 -80.3814 293° West 398 458 38,000  Level Cleveland Center
10:27 39.5272 -80.5131 294° West 398 458 38,000  Level Cleveland Center
10:28 39.5711 -80.6450 293° West 398 458 38,000  Level Cleveland Center
10:28 39.5847 -80.6961 289° West 403 464 38,000  Level Indianapolis Center
10:29 39.6294 -80.8283 294° West 401 461 38,000  Level Indianapolis Center
10:30 39.6739 -80.9608 294° West 402 463 38,000  Level Indianapolis Center
10:31 39.7175 -81.0936 293° West 401 461 38,000  Level Indianapolis Center
10:32 39.7617 -81.2283 293° West 404 465 38,000  Level Indianapolis Center
10:33 39.8067 -81.3625 294° West 405 466 38,000  Level Indianapolis Center
10:34 39.8544 -81.5083 293° West 411 473 38,000  Level Indianapolis Center
10:35 39.8989 -81.6464 293° West 409 471 38,000  Level Indianapolis Center
10:36 39.9508 -81.8069 293° West 409 471 38,000  Level Indianapolis Center
10:37 39.9956 -81.9444 293° West 410 472 38,000  Level Indianapolis Center
10:38 40.0389 -82.0814 292° West 406 467 38,000  Level Indianapolis Center
10:39 40.0831 -82.2178 293° West 404 465 38,000  Level Indianapolis Center
10:40 40.1264 -82.3531 293° West 402 463 38,000  Level Indianapolis Center
10:41 40.1689 -82.4867 293° West 399 459 38,000  Level Indianapolis Center
10:42 40.2097 -82.6206 292° West 393 452 38,000  Level Indianapolis Center
10:43 40.2572 -82.7706 293° West 398 458 38,000  Level Indianapolis Center
10:45 40.3025 -82.9147 292° West 405 466 38,000  Level Indianapolis Center
10:46 40.3431 -83.0494 292° West 398 458 38,000  Level Indianapolis Center
10:47 40.3861 -83.1850 293° West 402 463 38,000  Level Indianapolis Center
10:48 40.4286 -83.3242 292° West 408 470 38,000  Level Indianapolis Center
10:49 40.4708 -83.4628 292° West 410 472 38,000 -480 Level Indianapolis Center
10:50 40.5125 -83.6011 292° West 407 468 37,100 -900 Descending Indianapolis Center
10:51 40.5542 -83.7400 292° West 407 468 36,200 -540 Descending Indianapolis Center
10:52 40.6033 -83.9017 292° West 406 467 36,000 -240 Descending Indianapolis Center
10:53 40.6447 -84.0414 291° West 407 468 35,800 -600 Descending Indianapolis Center
10:54 40.6864 -84.1833 291° West 411 473 34,800 -960 Descending Indianapolis Center
10:55 40.7289 -84.3208 292° West 406 467 33,900 -1,200 Descending Indianapolis Center
10:56 40.7706 -84.4347 296° West 406 467 32,700 -1,500 Descending Chicago Center
10:57 40.8342 -84.5586 304° West 408 470 31,200 -1,440 Descending Chicago Center
10:58 40.8975 -84.6906 302° West 421 484 29,800 -1,380 Descending Chicago Center
10:59 40.9614 -84.8239 302° West 427 491 28,400 -1,440 Descending Chicago Center
11:00 41.0264 -84.9606 302° West 435 501 26,900 -1,500 Descending Chicago Center
11:01 41.0903 -85.0975 302° West 438 504 25,400 -1,500 Descending Chicago Center
11:02 41.1531 -85.2314 302° West 431 496 23,900 -1,560 Descending Chicago Center
11:03 41.2161 -85.3631 303° West 424 488 22,300 -1,260 Descending Chicago Center
11:04 41.2775 -85.4939 302° West 417 480 21,400 -1,080 Descending Chicago Center
11:05 41.3292 -85.6608 292° West 405 466 20,200 -1,080 Descending Chicago Center
11:06 41.3667 -85.8003 290° West 400 460 19,200 -1,200 Descending Chicago Center
11:07 41.4028 -85.9386 289° West 396 456 17,800 -1,080 Descending Chicago Center
11:08 41.4164 -86.0775 277° West 378 435 17,000 -840 Descending Chicago Center
11:09 41.4300 -86.2156 278° West 376 433 16,200 -1,620 Descending Chicago Center
11:10 41.4425 -86.3483 277° West 366 421 13,700 -2,460 Descending Chicago Center
11:11 41.4542 -86.4739 277° West 350 403 11,200 -1,680 Descending Chicago Center
11:12 41.4656 -86.5975 277° West 340 391 10,300 -600 Descending Chicago Center
11:13 41.4792 -86.7411 277° West 331 381 10,000 -180 Descending Chicago Center
11:14 41.4886 -86.8464 277° West 290 334 10,000 -420 Level Chicago Center
11:15 41.4964 -86.9369 277° West 257 296 9,200 -1,140 Descending Chicago Center
11:16 41.5056 -87.0306 277° West 254 292 7,700 -1,560 Descending Chicago Center
11:17 41.5167 -87.1333 278° West 259 298 6,200 -900 Descending Chicago TRACON
11:18 41.5167 -87.2167 270° West 237 273 6,000 -540 Descending Chicago TRACON
11:19 41.5333 -87.3000 285° West 240 276 5,200 -1,020 Descending Chicago TRACON
11:20 41.5667 -87.3833 298° West 241 277 4,000 -600 Descending Chicago TRACON
11:21 41.6000 -87.4667 298° West 237 273 4,000  Level Chicago TRACON
11:22 41.6333 -87.5333 304° West 232 267 4,000 -60 Level Chicago TRACON
11:23 41.6667 -87.5833 312° West 201 231 3,900 -240 Descending Chicago TRACON
11:23 41.6739 -87.6017 298° West 226 260 3,700 -1,140 Descending Chicago Center
11:24 41.7000 -87.6500 306° West 195 224 2,800 -1,140 Descending Chicago TRACON
11:25 41.7333 -87.6833 323° Northwest 156 180 1,800 -900 Descending Chicago TRACON
11:26 41.7667 -87.7333 312° West 135 155 1,000 -840 Descending Chicago TRACON
11:28 41.7833 -87.7500 334° Northwest  Level FlightAware Approximate
11:35 41.7860 -87.7524 334° Northwest  Level Estimated